Location: Asheville, NC
(35.6000°N, 82.5500°W)
Time: 20:35:49
(UTC-04:00)

Vanguard 2 - Pass Details

Date: 13 December 2017
Orbit: 553 x 2939 km, 32.9° (Epoch: 22 June)

Event Time Altitude Azimuth Distance (km) Brightness Sun altitude
Rises 20:24:03 0° 272° (W) 2,889 11.5 -36.9°
Reaches altitude 10° 20:26:41 10° 260° (W) 1,867 10.2 -37.5°
Enters shadow 20:26:58 12° 258° (WSW) 1,762 10.1 -37.5°
